Flag for USA Past Weather in Warminster Township, Pennsylvania, USA — Yesterday and Last 2 Weeks

Now
85 °F

Sunny.


Feels Like: 83 °F
Forecast: 61 / 87 °F
Wind: 6 mph from North

Location: Doylestown Airport

Current Time: May 26, 2016 at 4:31:41 PM

Latest Report: May 26, 2016 at 3:54 PM


Visibility: 10 mi

Pressure: 30.03 "Hg

Humidity: 28%

Dew Point: 48 °F

Location of Warminster TownshipLocation

Past Weather in Warminster Township — Graph

°F

Warminster Township Temperature Yesterday

Maximum temperature yesterday: 85 °F (at 3:54 PM)
Minimum temperature yesterday: 50 °F (at 5:54 AM)
Average temperature yesterday: 70 °F

High & Low Weather Summary for the Past Weeks

 TemperatureHumidityPressure
High86 °F (May 26, 1:54 PM)100% (May 13, 8:54 PM)30.27 "Hg (May 13, 8:54 PM)
Low36 °F (May 16, 4:54 AM)19% (May 25, 4:54 PM)29.62 "Hg (May 14, 3:54 PM)
Average59 °F66%30.00 "Hg
* Reported May 11 2:54 PM — May 26 2:54 PM, Warminster Township, Weather by CustomWeather, © 2016

Note: Actual official high and low records may vary slightly from our data, if they occured in-between our weather recording intervals... More about our weather records

Advertising

Warminster Township Weather History for the Previous 24 Hours

Scroll right to see more
 ConditionsComfort  
Time TempWeatherWind HumidityBarometerVisibility
2:54 PM
Thu, May 26
85 °FSunny.6 mph27%30.04 "Hg10 mi
1:54 PM86 °FSunny.7 mph24%30.04 "Hg10 mi
12:54 PM85 °FSunny.7 mph26%30.06 "Hg10 mi
11:54 AM83 °FSunny.8 mph30%30.07 "Hg10 mi
10:54 AM82 °FSunny.No wind37%30.08 "Hg10 mi
9:54 AM78 °FSunny.3 mph45%30.09 "Hg10 mi
8:54 AM73 °FSunny.3 mph50%30.11 "Hg10 mi
7:54 AM68 °FSunny.5 mph55%30.11 "Hg10 mi
6:54 AM63 °FSunny.3 mph65%30.11 "Hg10 mi
5:54 AM59 °FClear.No wind78%30.10 "Hg10 mi
4:54 AM62 °FClear.3 mph65%30.09 "Hg10 mi
3:54 AM62 °FClear.3 mph65%30.08 "Hg10 mi
2:54 AM62 °FClear.3 mph67%30.08 "Hg10 mi
1:54 AM65 °FClear.3 mph59%30.07 "Hg10 mi
12:54 AM67 °FClear.3 mph53%30.07 "Hg10 mi
11:54 PM
Wed, May 25
67 °FClear.5 mph53%30.07 "Hg10 mi
10:54 PM69 °FClear.5 mph47%30.08 "Hg10 mi
9:54 PM71 °FClear.3 mph42%30.07 "Hg10 mi
8:54 PM74 °FSunny.5 mph37%30.06 "Hg10 mi
7:54 PM79 °FSunny.5 mph30%30.05 "Hg10 mi
6:54 PM82 °FSunny.9 mph24%30.05 "Hg10 mi
5:54 PM84 °FSunny.8 mph21%30.05 "Hg10 mi
4:54 PM84 °FSunny.8 mph19%30.05 "Hg10 mi
Weather by CustomWeather, © 2016

See weather overviewHow to use our weather pages